Theta_e
312 311 312 312 317 318 318 318 316 315 317 316 316 314 314 317 318 317 320 322 320 321 323 326 333 338 337 338 340 340 339 339 340 338 335 331 331 332 332 338 340 337 332 333
312 312 313 312 315 318 318 317 317 315 316 317 315 316 316 314 316 318 319 321 322 323 322 322 324 331 337 337 336 338 339 340 340 339 338 335 333 332 335 335 339 340 335 334
315 313 314 312 315 316 317 318 317 316 316 315 316 317 316 316 317 320 320 321 322 323 323 323 324 326 327 337 337 337 336 337 339 341 340 339 338 336 337 337 338 339 335 333
314 314 315 315 313 315 314 315 316 316 316 315 315 316 316 316 316 316 319 320 321 322 323 323 324 324 325 331 337 335 337 337 338 341 341 341 339 336 334 334 336 338 335 333
315 315 315 315 316 315 315 316 316 315 315 315 315 315 317 316 314 314 314 320 321 321 322 323 323 323 323 324 325 326 326 331 335 338 340 341 341 339 337 336 337 338 336 335
316 316 316 316 315 316 316 317 317 317 318 320 316 315 317 316 315 315 316 319 319 320 320 320 322 322 322 322 322 325 328 327 328 332 338 340 341 341 340 337 337 337 336 335
315 314 314 315 315 315 315 316 318 320 322 322 319 316 316 316 315 315 315 317 319 320 321 321 321 321 321 321 321 322 325 326 328 332 336 338 340 342 341 338 333 333 334 336
318 318 316 315 314 314 314 316 318 320 320 320 319 321 320 318 318 318 319 318 319 320 320 320 321 321 322 322 323 322 322 324 327 331 333 336 341 342 342 338 333 333 333 335
318 319 315 315 314 315 315 316 315 317 317 319 318 318 318 318 318 318 318 319 319 319 320 320 321 321 321 321 323 322 323 324 325 326 332 338 339 342 342 338 334 333 334 336
310 314 314 314 313 313 315 315 317 318 322 318 317 318 319 318 318 318 317 317 317 318 318 319 319 320 321 322 322 322 322 323 324 327 331 337 338 341 342 340 337 335 335 336
307 313 311 312 315 315 313 316 316 318 319 322 322 318 315 316 316 314 314 317 317 318 318 319 319 320 320 321 321 322 323 322 327 335 335 338 340 340 342 341 340 338 337 336
306 310 311 311 310 310 311 314 317 315 316 318 320 319 316 313 310 309 313 314 313 314 317 319 318 319 320 320 321 321 325 323 327 333 338 340 341 340 341 342 341 339 337 335
307 307 307 307 308 309 315 311 310 316 315 314 318 317 314 310 310 309 310 311 312 316 315 315 316 318 319 320 321 323 328 327 335 338 340 340 343 340 341 342 339 340 338 336
308 308 308 307 307 307 307 308 310 311 312 312 313 313 311 311 310 309 311 311 313 314 315 315 316 316 317 320 321 327 334 335 339 342 340 340 341 340 341 339 339 340 337 333
305 307 307 306 307 308 308 308 308 308 309 312 311 311 310 309 310 309 311 312 313 312 311 314 315 316 317 318 319 322 335 340 341 343 342 342 339 341 340 340 339 337 334 329
305 305 306 307 307 307 307 307 307 307 307 307 308 308 308 309 310 310 309 310 311 309 315 317 318 318 319 318 318 321 325 335 338 343 341 339 339 339 338 338 337 334 332 327
306 306 308 308 306 306 307 306 306 306 307 307 307 307 308 308 309 308 309 309 309 315 312 312 315 316 317 319 319 319 323 323 334 339 339 339 337 337 338 338 336 333 329 325
305 305 305 306 306 306 305 304 305 305 305 305 306 308 308 308 308 308 310 315 316 310 309 312 314 314 316 318 319 319 319 322 328 334 335 337 336 336 335 335 332 329 323 321
304 305 306 307 306 305 305 305 305 304 304 304 305 305 306 307 306 310 313 313 308 308 306 311 314 314 313 316 318 319 319 321 324 331 333 334 335 335 333 332 328 322 320 316
304 304 305 303 307 303 305 304 305 304 304 305 304 305 305 306 309 309 309 309 308 307 306 306 310 314 314 314 317 318 319 319 320 321 330 332 332 332 331 329 324 317 315 316
303 303 306 306 307 306 305 305 305 306 305 305 305 305 305 305 310 310 309 309 310 308 308 307 306 314 314 313 314 318 319 318 319 320 322 328 329 328 327 323 320 315 313 312
301 301 305 306 306 307 305 305 305 305 306 305 305 306 307 307 308 307 307 308 311 309 307 307 306 314 313 313 314 318 319 319 320 321 322 325 325 324 321 320 316 312 312 308
304 304 303 305 304 303 304 305 305 305 306 306 306 306 305 305 305 306 306 306 308 308 307 306 306 310 309 309 313 313 318 318 318 320 322 324 322 321 318 315 312 308 307 306
302 303 302 303 304 303 304 304 305 304 304 305 305 305 305 305 306 306 306 307 308 308 307 306 308 309 309 310 314 314 318 319 318 319 319 317 316 315 311 309 310 308 305 303
302 302 303 304 304 304 304 304 304 305 304 304 305 305 305 305 306 306 306 307 307 307 306 308 308 306 308 311 314 314 316 315 316 315 315 313 311 309 306 305 304 304 303 303
302 304 304 304 304 304 305 304 304 304 304 304 305 305 305 305 306 305 306 305 305 307 308 307 307 308 310 312 314 313 315 310 313 313 311 310 308 305 304 302 300 299 299 299
Wind_Speed
7 4 12 16 18 2 4 5 8 3 1 5 6 10 10 19 26 13 28 34 26 27 37 43 47 50 46 47 47 49 46 45 44 44 44 44 44 43 42 39 35 32 31 34
2 14 17 4 7 9 6 8 17 8 5 3 12 19 18 8 16 23 26 33 34 31 30 32 42 51 54 52 50 49 50 51 51 50 48 46 44 44 43 39 37 34 34 35
9 3 7 4 5 8 11 14 16 10 5 7 5 18 20 15 13 28 27 28 29 30 33 29 31 45 45 58 57 56 55 55 55 56 52 49 46 46 44 43 40 39 37 36
7 10 15 7 7 8 11 4 11 10 2 10 4 8 21 8 9 7 24 29 28 28 28 28 29 36 41 52 59 59 62 62 61 57 58 57 55 53 51 50 46 43 39 38
5 2 7 4 7 6 8 3 6 6 9 7 14 5 21 2 9 8 10 23 24 23 28 31 26 23 30 34 44 45 50 58 61 63 61 62 60 57 51 51 50 46 42 41
4 8 3 6 1 1 7 3 4 6 3 7 20 8 26 14 12 5 7 25 31 37 37 37 38 34 36 34 32 45 52 53 55 60 63 64 63 61 56 52 53 49 45 45
4 10 4 6 2 3 6 1 3 4 6 11 14 9 24 5 9 8 10 22 22 26 30 31 31 35 32 32 32 34 43 45 55 61 62 65 64 62 59 57 51 49 49 49
3 5 3 3 7 7 5 6 5 5 4 11 6 11 21 21 24 26 27 27 35 40 44 40 35 28 28 32 39 31 36 43 50 60 63 64 64 63 61 58 52 51 49 51
4 3 5 4 5 2 3 3 3 4 9 8 7 9 16 17 11 12 19 27 32 38 41 50 47 41 44 44 44 39 38 42 49 53 62 64 63 62 63 57 52 50 48 50
2 4 2 4 4 3 3 3 3 1 4 5 7 7 12 14 14 16 13 23 30 33 36 38 40 43 42 40 46 52 41 43 49 55 61 63 62 61 62 52 52 50 45 45
3 1 5 3 3 1 5 2 3 2 2 3 5 5 8 5 8 13 16 24 29 33 37 40 45 47 47 47 50 54 45 42 48 56 59 58 55 59 61 51 51 49 45 43
4 3 4 7 8 7 2 3 3 3 3 3 4 10 8 5 17 23 23 32 37 41 39 39 44 45 45 50 50 54 43 41 46 52 55 51 52 57 55 53 51 47 46 45
5 3 4 6 4 4 3 3 1 3 4 8 5 9 4 20 14 26 25 30 35 38 43 44 46 40 46 49 47 50 38 38 44 48 50 49 51 56 50 53 48 49 48 47
12 5 7 6 6 4 10 7 1 5 4 6 13 17 27 26 23 25 27 26 33 36 38 41 40 43 45 43 43 44 33 34 40 42 45 47 50 51 48 46 46 50 47 46
1 5 6 12 9 6 12 15 14 14 13 10 21 16 27 29 26 33 29 26 29 33 38 38 38 39 39 42 42 41 30 28 34 38 41 43 47 42 45 48 47 47 45 45
2 5 5 18 13 12 17 19 13 15 18 16 22 24 26 35 42 29 27 26 23 32 32 34 39 39 36 35 37 36 32 34 34 38 38 42 39 42 44 47 43 43 45 47
6 3 4 21 7 9 14 15 18 16 16 14 16 22 24 19 20 30 25 26 24 21 32 36 38 39 41 39 35 35 35 31 38 38 39 39 41 42 42 43 44 45 48 46
12 9 4 13 9 15 6 7 5 9 9 7 16 20 22 27 33 29 28 26 17 30 36 40 42 45 46 43 37 35 40 38 32 36 41 42 43 42 39 45 48 47 47 49
18 11 6 6 10 16 23 15 12 6 17 14 22 20 28 32 29 23 17 19 25 31 34 38 42 48 49 44 39 35 37 39 35 36 41 45 46 44 43 46 47 47 49 47
10 13 8 3 5 8 21 11 6 4 8 25 13 18 21 16 8 16 17 21 29 30 33 40 43 44 44 44 42 36 36 39 41 39 44 45 47 47 46 47 47 45 46 47
3 3 15 14 10 11 9 13 7 4 18 21 8 20 23 12 14 33 37 33 30 33 36 42 43 41 43 47 44 38 36 42 41 48 47 48 49 50 49 48 46 48 48 48
8 5 6 8 8 15 13 10 11 16 25 26 23 23 23 28 36 41 46 36 34 37 38 42 42 40 42 46 44 40 39 40 46 48 45 48 49 51 49 48 48 50 51 55
6 10 6 9 8 9 14 16 17 17 25 32 20 29 31 40 41 43 49 47 38 37 41 44 43 42 46 46 49 49 41 26 37 46 49 49 49 49 48 49 50 52 55 57
7 9 8 6 21 23 34 34 44 43 39 47 43 40 40 39 44 45 47 49 41 40 45 45 44 44 47 43 44 43 39 23 34 42 44 45 46 46 46 47 51 55 59 55
13 1 3 13 22 24 33 36 43 49 43 42 48 45 40 41 45 44 44 46 44 46 42 43 46 51 46 39 37 37 35 22 27 37 39 40 42 43 42 43 48 51 52 57
19 19 10 17 31 24 32 47 44 40 39 37 39 47 44 37 40 42 43 43 45 42 40 44 48 46 41 36 32 25 31 20 27 31 35 39 40 41 42 42 37 38 44 42
Wind_Direction
185 155 218 209 210 222 191 231 248 240 345 356 277 298 284 291 290 274 286 287 276 255 258 246 239 232 232 237 236 232 231 231 227 226 227 227 228 227 226 226 224 223 223 221
118 232 226 207 175 203 231 247 261 288 249 250 299 288 283 266 272 272 267 279 282 282 280 255 248 237 233 233 238 239 238 233 234 231 232 230 230 230 230 227 224 226 227 227
208 255 189 198 169 207 228 231 257 263 335 264 282 282 284 269 257 279 276 270 277 284 287 283 263 237 232 231 235 237 242 243 238 235 230 229 230 233 231 231 227 227 227 226
235 266 270 271 244 202 244 193 254 276 292 272 146 279 280 290 259 251 277 281 279 282 285 289 275 254 240 235 236 241 241 242 244 237 232 230 230 230 233 231 229 228 225 224
225 38 46 279 257 223 261 326 275 263 258 286 255 248 272 214 260 256 259 275 289 293 293 292 291 281 283 256 239 241 242 240 241 241 237 233 230 234 234 231 230 229 225 224
237 273 218 197 321 100 306 309 309 261 61 280 265 208 279 251 263 237 259 276 280 287 288 284 286 290 296 294 269 247 241 241 243 241 237 236 234 231 231 231 231 228 227 223
297 263 219 190 265 213 208 226 291 233 185 234 239 258 253 237 278 266 281 292 301 305 308 308 299 296 299 306 296 271 252 251 247 241 239 237 236 232 233 234 232 229 225 223
203 322 199 165 212 200 198 188 190 229 207 265 189 210 242 261 271 284 292 297 306 304 301 302 312 304 304 312 313 284 264 264 256 245 242 238 235 232 233 235 233 233 228 227
341 263 347 333 6 65 303 251 245 266 268 273 255 284 294 284 297 306 304 308 299 299 298 294 291 300 303 311 314 304 279 262 253 254 245 237 235 230 231 231 232 235 232 231
233 279 319 10 354 356 197 222 316 289 299 240 246 227 247 287 298 301 332 334 328 324 319 314 312 308 300 298 306 314 283 265 255 249 241 237 235 229 229 229 232 233 235 235
330 110 309 30 42 26 342 349 341 306 224 241 276 259 242 310 34 348 323 314 312 313 313 311 309 309 310 307 307 307 298 269 251 243 238 232 226 229 228 228 233 234 234 237
336 280 261 223 234 246 155 223 183 201 305 275 273 269 271 24 342 331 312 301 312 319 318 315 315 316 318 314 312 312 302 266 249 241 234 224 223 229 226 229 233 236 235 237
344 328 325 326 18 17 155 157 50 188 166 248 274 264 315 313 314 313 297 295 305 313 315 316 320 317 317 316 316 315 300 268 246 232 226 221 220 230 226 229 235 235 234 233
285 221 209 238 256 330 300 303 253 245 216 262 248 284 296 299 304 310 305 311 306 308 318 314 313 321 325 323 317 314 291 258 239 226 223 222 221 231 227 230 234 232 231 225
283 265 293 287 266 276 274 267 268 258 255 252 276 275 276 287 293 293 303 302 306 314 316 322 320 318 320 319 318 319 286 260 239 226 221 218 220 230 232 230 231 229 226 222
286 281 321 289 283 271 270 257 249 249 257 257 260 265 262 274 281 285 294 300 298 310 318 323 321 321 324 328 327 315 305 277 249 228 224 221 227 232 234 228 227 225 224 221
242 247 284 279 275 291 274 257 233 239 242 236 252 254 274 275 278 286 297 300 298 306 319 318 322 323 321 322 320 316 306 297 269 242 235 231 231 232 231 230 225 225 222 219
242 236 224 276 298 270 264 198 195 227 246 267 269 261 263 269 272 287 298 292 296 320 323 321 325 325 323 318 314 314 299 291 281 254 241 233 231 228 230 223 218 217 217 215
215 225 246 248 249 281 288 269 245 231 269 249 247 262 265 267 287 277 267 282 304 313 319 318 315 315 315 315 314 307 292 287 279 260 248 243 239 230 226 216 214 213 212 206
205 214 209 183 244 241 266 285 132 145 275 252 263 255 265 269 265 272 279 286 302 311 322 322 320 314 315 320 314 304 296 281 280 280 256 247 234 229 220 215 211 208 207 205
159 182 217 235 243 260 254 261 246 195 256 289 263 255 261 259 247 282 293 290 297 304 310 315 314 308 311 321 320 305 304 274 252 261 257 247 235 223 219 213 210 206 200 199
197 184 211 233 240 258 221 267 198 244 277 282 283 282 274 283 289 287 292 290 289 299 307 315 308 303 308 316 320 312 304 280 264 255 251 242 235 221 215 211 203 201 198 189
234 206 220 192 232 278 276 253 273 284 271 275 272 281 288 292 282 286 291 293 287 291 306 310 307 301 305 307 310 312 310 286 254 252 242 234 226 217 211 205 199 194 193 186
262 237 243 270 263 263 276 283 284 281 272 277 275 278 285 279 281 283 291 294 286 292 304 305 307 303 305 299 308 314 319 306 246 233 227 220 214 207 204 201 200 195 188 183
256 53 255 258 263 281 271 272 274 276 275 273 278 282 281 282 284 286 291 292 287 296 298 300 306 304 300 291 297 314 331 269 233 220 216 210 205 200 193 193 189 188 186 186
256 250 244 263 276 269 281 280 278 279 282 280 281 283 281 278 285 292 287 290 292 294 295 300 303 299 291 285 287 314 313 253 234 214 207 205 196 190 185 180 170 173 174 169